When you browse on this site, cookies collect data to enhance your experience and personalize the content and advertising you see.
Visit our Privacy Policy to learn more. By continuing to use the site, you agree to this use of cookies and data.
  • In Hungary
  • List of Countries
  • For 7 days
  • Water Temperature
  • Satellite Maps
  • Weather Map
  • News
  • Weather Widgets
  • user-avatar
    Login

    Hourly Weather Sucre

    Today, 19 April, Friday

    Time Temperature Precipitation Wind Pressure Humidity
    00:00 +15°C° 0 mm 1 mps 541 mmHg 79%
    01:00 +15°C° 0 mm 2 mps 541 mmHg 81%
    02:00 +14°C° 0 mm 2 mps 540 mmHg 84%
    03:00 +14°C° 0 mm 1 mps 540 mmHg 85%
    04:00 +14°C° 0 mm 1 mps 540 mmHg 86%
    05:00 +12°C° 0 mm 0 mps 540 mmHg 88%
    06:00 +14°C° 0 mm 1 mps 540 mmHg 83%
    07:00 +15°C° 0 mm 1 mps 541 mmHg 78%
    08:00 +16°C° 0 mm 1 mps 542 mmHg 68%
    09:00 +19°C° 0 mm 1 mps 543 mmHg 59%
    10:00 +20°C° 0 mm 2 mps 544 mmHg 51%
    11:00 +23°C° 0 mm 2 mps 544 mmHg 42%
    12:00 +24°C° 0 mm 3 mps 544 mmHg 40%
    13:00 +25°C° 0 mm 3 mps 544 mmHg 37%
    14:00 +26°C° 0 mm 3 mps 544 mmHg 34%
    15:00 +25°C° 0 mm 4 mps 544 mmHg 37%
    16:00 +25°C° 0 mm 5 mps 543 mmHg 39%
    17:00 +23°C° 0 mm 6 mps 543 mmHg 42%
    18:00 +21°C° 2.2 mm 4 mps 543 mmHg 51%
    19:00 +19°C° 2.2 mm 3 mps 542 mmHg 61%
    20:00 +19°C° 2.2 mm 1 mps 542 mmHg 70%
    21:00 +18°C° 0.4 mm 1 mps 542 mmHg 70%
    22:00 +18°C° 0.4 mm 1 mps 543 mmHg 69%
    23:00 +17°C° 0.4 mm 2 mps 543 mmHg 69%

    Tomorrow, 20 April, Saturday

    Time Temperature Precipitation Wind Pressure Humidity
    00:00 +16°C° 0 mm 1 mps 543 mmHg 73%
    01:00 +16°C° 0 mm 1 mps 542 mmHg 76%
    02:00 +16°C° 0 mm 1 mps 542 mmHg 80%
    03:00 +15°C° 0 mm 1 mps 541 mmHg 83%
    04:00 +14°C° 0 mm 1 mps 541 mmHg 86%
    05:00 +13°C° 0 mm 0 mps 540 mmHg 90%
    06:00 +13°C° 0 mm 0 mps 541 mmHg 85%
    07:00 +14°C° 0 mm 0 mps 542 mmHg 81%
    08:00 +15°C° 0 mm 0 mps 542 mmHg 77%
    09:00 +18°C° 0.1 mm 1 mps 543 mmHg 69%
    10:00 +19°C° 0.1 mm 2 mps 544 mmHg 61%
    11:00 +20°C° 0.1 mm 2 mps 544 mmHg 54%
    12:00 +21°C° 0.1 mm 3 mps 544 mmHg 50%
    13:00 +22°C° 0.1 mm 3 mps 544 mmHg 47%
    14:00 +24°C° 0.1 mm 3 mps 544 mmHg 43%
    15:00 +23°C° 0 mm 4 mps 543 mmHg 44%
    16:00 +22°C° 0 mm 4 mps 543 mmHg 45%
    17:00 +22°C° 0 mm 5 mps 543 mmHg 46%
    18:00 +21°C° 0.6 mm 4 mps 542 mmHg 53%
    19:00 +19°C° 0.6 mm 3 mps 542 mmHg 59%
    20:00 +18°C° 0.6 mm 2 mps 542 mmHg 65%
    21:00 +17°C° 1 mm 2 mps 542 mmHg 69%
    22:00 +18°C° 1 mm 1 mps 542 mmHg 72%
    23:00 +16°C° 1 mm 1 mps 542 mmHg 76%

    Day after tomorrow, 21 April, Sunday

    Time Temperature Precipitation Wind Pressure Humidity
    00:00 +16°C° 0.4 mm 1 mps 542 mmHg 78%
    01:00 +15°C° 0.4 mm 1 mps 541 mmHg 81%
    02:00 +15°C° 0.4 mm 1 mps 541 mmHg 83%
    03:00 +14°C° 0 mm 1 mps 540 mmHg 85%
    04:00 +14°C° 0 mm 1 mps 540 mmHg 86%
    05:00 +14°C° 0 mm 1 mps 540 mmHg 87%
    06:00 +14°C° 0 mm 1 mps 540 mmHg 84%
    07:00 +15°C° 0 mm 1 mps 541 mmHg 81%
    08:00 +15°C° 0 mm 1 mps 542 mmHg 78%
    09:00 +18°C° 0.3 mm 1 mps 542 mmHg 70%
    10:00 +18°C° 0.3 mm 2 mps 543 mmHg 63%
    11:00 +20°C° 0.3 mm 2 mps 544 mmHg 55%
    12:00 +21°C° 0.1 mm 3 mps 543 mmHg 52%
    13:00 +22°C° 0.1 mm 3 mps 543 mmHg 49%
    14:00 +22°C° 0.1 mm 3 mps 542 mmHg 46%
    15:00 +22°C° 0.8 mm 3 mps 542 mmHg 49%
    16:00 +21°C° 0.8 mm 3 mps 541 mmHg 51%
    17:00 +21°C° 0.8 mm 3 mps 541 mmHg 54%
    18:00 +20°C° 0.8 mm 2 mps 541 mmHg 59%
    19:00 +18°C° 0.8 mm 2 mps 541 mmHg 64%
    20:00 +18°C° 0.8 mm 1 mps 541 mmHg 69%
    21:00 +18°C° 0.4 mm 1 mps 541 mmHg 72%
    22:00 +16°C° 0.4 mm 1 mps 541 mmHg 74%
    23:00 +15°C° 0.4 mm 1 mps 541 mmHg 77%

    22 April, Monday

    Time Temperature Precipitation Wind Pressure Humidity
    00:00 +15°C° 0 mm 1 mps 541 mmHg 79%
    01:00 +15°C° 0 mm 1 mps 541 mmHg 81%
    02:00 +14°C° 0 mm 1 mps 540 mmHg 84%
    03:00 +14°C° 0 mm 1 mps 540 mmHg 85%
    04:00 +13°C° 0 mm 0 mps 540 mmHg 87%
    05:00 +12°C° 0 mm 0 mps 540 mmHg 88%
    06:00 +13°C° 0 mm 0 mps 541 mmHg 85%
    07:00 +15°C° 0 mm 1 mps 541 mmHg 82%
    08:00 +15°C° 0 mm 1 mps 542 mmHg 78%
    09:00 +16°C° 0 mm 1 mps 543 mmHg 73%
    10:00 +17°C° 0 mm 2 mps 543 mmHg 68%
    11:00 +18°C° 0 mm 2 mps 544 mmHg 63%
    12:00 +19°C° 0.1 mm 3 mps 543 mmHg 60%
    13:00 +19°C° 0.1 mm 3 mps 543 mmHg 58%
    14:00 +20°C° 0.1 mm 3 mps 543 mmHg 55%
    15:00 +19°C° 0.1 mm 4 mps 542 mmHg 57%
    16:00 +19°C° 0.1 mm 4 mps 542 mmHg 59%
    17:00 +18°C° 0.1 mm 4 mps 541 mmHg 61%
    18:00 +17°C° 0.1 mm 3 mps 542 mmHg 66%
    19:00 +16°C° 0.1 mm 3 mps 542 mmHg 72%
    20:00 +15°C° 0.1 mm 2 mps 542 mmHg 77%
    21:00 +15°C° 0.2 mm 2 mps 542 mmHg 79%
    22:00 +15°C° 0.2 mm 2 mps 542 mmHg 81%
    23:00 +14°C° 0.2 mm 2 mps 542 mmHg 83%

    23 April, Tuesday

    Time Temperature Precipitation Wind Pressure Humidity
    00:00 +14°C° 0.2 mm 2 mps 542 mmHg 85%
    01:00 +14°C° 0.2 mm 2 mps 542 mmHg 86%
    02:00 +13°C° 0.2 mm 2 mps 541 mmHg 87%
    03:00 +13°C° 0.1 mm 2 mps 541 mmHg 88%
    04:00 +13°C° 0.1 mm 1 mps 541 mmHg 89%
    05:00 +12°C° 0.1 mm 1 mps 541 mmHg 90%
    06:00 +13°C° 0 mm 1 mps 541 mmHg 88%
    07:00 +13°C° 0 mm 1 mps 542 mmHg 87%
    08:00 +13°C° 0 mm 2 mps 542 mmHg 85%
    09:00 +14°C° 0 mm 2 mps 543 mmHg 80%
    10:00 +14°C° 0 mm 2 mps 543 mmHg 76%
    11:00 +15°C° 0 mm 2 mps 543 mmHg 71%
    12:00 +16°C° 0 mm 3 mps 543 mmHg 67%
    13:00 +17°C° 0 mm 3 mps 542 mmHg 63%
    14:00 +18°C° 0 mm 3 mps 542 mmHg 59%
    15:00 +17°C° 0 mm 3 mps 542 mmHg 61%
    16:00 +17°C° 0 mm 3 mps 541 mmHg 62%
    17:00 +16°C° 0 mm 3 mps 541 mmHg 64%
    18:00 +16°C° 0 mm 3 mps 541 mmHg 68%
    19:00 +15°C° 0 mm 2 mps 541 mmHg 72%
    20:00 +14°C° 0 mm 2 mps 541 mmHg 75%
    21:00 +14°C° 0 mm 2 mps 542 mmHg 78%
    22:00 +14°C° 0 mm 2 mps 542 mmHg 80%
    23:00 +13°C° 0 mm 2 mps 542 mmHg 83%

    24 April, Wednesday

    Time Temperature Precipitation Wind Pressure Humidity
    00:00 +13°C° 0 mm 2 mps 541 mmHg 85%
    01:00 +12°C° 0 mm 2 mps 541 mmHg 87%
    02:00 +12°C° 0 mm 2 mps 540 mmHg 89%
    03:00 +12°C° 0 mm 2 mps 540 mmHg 87%
    04:00 +12°C° 0 mm 2 mps 540 mmHg 86%
    05:00 +12°C° 0 mm 2 mps 540 mmHg 84%
    06:00 +12°C° 0 mm 1 mps 541 mmHg 83%
    07:00 +13°C° 0 mm 1 mps 541 mmHg 83%
    08:00 +13°C° 0 mm 1 mps 542 mmHg 82%
    09:00 +14°C° 0 mm 2 mps 542 mmHg 76%
    10:00 +16°C° 0 mm 2 mps 543 mmHg 69%
    11:00 +17°C° 0 mm 3 mps 543 mmHg 63%
    12:00 +18°C° 0 mm 3 mps 543 mmHg 61%
    13:00 +18°C° 0 mm 3 mps 543 mmHg 59%
    14:00 +19°C° 0 mm 3 mps 542 mmHg 57%
    15:00 +18°C° 0 mm 3 mps 542 mmHg 59%
    16:00 +18°C° 0 mm 3 mps 542 mmHg 61%
    17:00 +17°C° 0 mm 3 mps 542 mmHg 63%
    18:00 +17°C° 0 mm 3 mps 542 mmHg 67%
    19:00 +16°C° 0 mm 2 mps 542 mmHg 71%
    20:00 +15°C° 0 mm 2 mps 542 mmHg 75%
    21:00 +15°C° 0 mm 2 mps 542 mmHg 78%
    22:00 +14°C° 0 mm 2 mps 542 mmHg 80%
    23:00 +14°C° 0 mm 2 mps 542 mmHg 83%
    Show more